This demonstration page uses our WeatherBlox Daily Observations layout. Learn more.

Left ArrowRight Arrow

Hourly Observations for October 13, 2016

Temp ( °F °C ) Dew Point ( °F °C ) Humidity (%) Winds ( mph kmh ) Pressure ( in mb ) Visibility ( mi km ) Precip ( " mm )
12:15 am 00:15 Clear 52 11 52 11 100 100 N N/A 30.21 1023 10 16 N/A
12:35 am 00:35 Clear 48 9 48 9 100 100 N N/A 30.21 1023 10 16 N/A
12:55 am 00:55 Clear 48 9 48 9 100 100 N N/A 30.21 1023 10 16 N/A
1:15 am 01:15 Clear 50 10 50 10 100 100 N N/A 30.18 1022 10 16 N/A
1:35 am 01:35 Clear 50 10 50 10 100 100 N N/A 30.18 1022 10 16 N/A
1:55 am 01:55 Clear 50 10 50 10 100 100 N N/A 30.18 1022 10 16 N/A
2:15 am 02:15 Clear 46 8 46 8 100 100 N N/A 30.18 1022 10 16 N/A
2:35 am 02:35 Clear 48 9 48 9 100 100 N N/A 30.18 1022 10 16 N/A
2:55 am 02:55 Clear 46 8 46 8 100 100 N N/A 30.18 1022 10 16 N/A
3:15 am 03:15 Clear 46 8 46 8 100 100 N N/A 30.15 1021 10 16 N/A
3:35 am 03:35 Clear 46 8 46 8 100 100 N N/A 30.15 1021 10 16 N/A
3:55 am 03:55 Clear 46 8 46 8 100 100 N N/A 30.15 1021 10 16 N/A
4:15 am 04:15 Clear 46 8 46 8 100 100 N N/A 30.15 1021 10 16 N/A
4:35 am 04:35 Clear 46 8 46 8 100 100 N N/A 30.15 1021 10 16 N/A
4:55 am 04:55 Clear 46 8 46 8 100 100 N N/A 30.15 1021 10 16 N/A
5:15 am 05:15 Partly Cloudy 45 7 45 7 100 100 N N/A 30.15 1021 10 16 N/A
5:35 am 05:35 Mostly Cloudy 45 7 45 7 100 100 N N/A 30.15 1021 10 16 N/A
5:55 am 05:55 Cloudy with Mist and Fog 46 8 46 8 100 100 N N/A 30.15 1021 4 6 N/A
6:15 am 06:15 Cloudy with Fog 46 8 46 8 100 100 N N/A 30.15 1021 0 0 N/A
6:35 am 06:35 Cloudy with Fog 46 8 46 8 100 100 N N/A 30.15 1021 0 0 N/A
6:55 am 06:55 Cloudy with Fog 46 8 46 8 100 100 N N/A 30.15 1021 1 1 N/A
7:15 am 07:15 Cloudy with Fog 46 8 46 8 100 100 N N/A 30.15 1021 0 0 N/A
7:35 am 07:35 Mostly Cloudy with Mist and Fog 46 8 46 8 100 100 N N/A 30.15 1021 5 8 N/A
7:55 am 07:55 Cloudy with Mist and Fog 46 8 46 8 100 100 N N/A 30.12 1020 1 2 N/A
8:15 am 08:15 Mostly Cloudy with Mist and Fog 46 8 46 8 100 100 N N/A 30.15 1021 3 5 N/A
8:35 am 08:35 Partly Cloudy 50 10 50 10 100 100 N N/A 30.15 1021 10 16 N/A
8:55 am 08:55 Sunny 52 11 52 11 100 100 N N/A 30.12 1020 10 16 N/A
9:15 am 09:15 Sunny 54 12 54 12 100 100 N N/A 30.12 1020 10 16 N/A
9:35 am 09:35 Sunny 54 12 54 12 100 100 N N/A 30.12 1020 10 16 N/A
9:55 am 09:55 Partly Cloudy 54 12 54 12 100 100 S 3 6 30.12 1020 10 16 N/A
10:15 am 10:15 Mostly Cloudy 55 13 54 12 94 94 S 3 6 30.12 1020 10 16 N/A
10:35 am 10:35 Mostly Cloudy 57 14 55 13 94 94 N N/A 30.12 1020 10 16 N/A
10:55 am 10:55 Mostly Cloudy 59 15 55 13 88 88 S 6 9 30.12 1020 10 16 N/A
11:15 am 11:15 Mostly Cloudy 61 16 55 13 83 83 S 5 7 30.12 1020 10 16 N/A
11:35 am 11:35 Mostly Cloudy 63 17 55 13 77 77 SSE 6 9 30.12 1020 10 16 N/A
11:55 am 11:55 Mostly Cloudy 64 18 55 13 73 73 N N/A 30.12 1020 10 16 N/A
12:15 pm 12:15 Mostly Cloudy 66 19 57 14 73 73 N N/A 30.12 1020 10 16 N/A
12:35 pm 12:35 Mostly Cloudy 68 20 59 15 73 73 N 3 6 30.12 1020 10 16 N/A
12:55 pm 12:55 Partly Cloudy 68 20 57 14 69 69 NW 10 17 30.12 1020 10 16 N/A
1:15 pm 13:15 Mostly Cloudy 70 21 55 13 60 60 NW 7 11 30.12 1020 10 16 N/A
1:35 pm 13:35 Cloudy 70 21 55 13 60 60 WNW 7 11 30.12 1020 10 16 N/A
1:55 pm 13:55 Cloudy 70 21 57 14 64 64 W 6 9 30.12 1020 10 16 N/A
2:15 pm 14:15 Partly Cloudy 70 21 59 15 69 69 WNW 13 20 30.09 1019 10 16 N/A
2:35 pm 14:35 Sunny 72 22 59 15 65 65 WNW 15 24 30.09 1019 10 16 N/A
2:55 pm 14:55 Partly Cloudy 73 23 59 15 61 61 WNW 12 19 30.12 1020 10 16 N/A
3:15 pm 15:15 Mostly Cloudy 72 22 59 15 65 65 NNW 6 9 30.12 1020 10 16 N/A
3:35 pm 15:35 Cloudy 72 22 59 15 65 65 NNW 10 17 30.12 1020 10 16 N/A
3:55 pm 15:55 Cloudy 70 21 59 15 69 69 NNW 10 17 30.12 1020 10 16 N/A
4:15 pm 16:15 Cloudy 70 21 59 15 69 69 NNW 7 11 30.12 1020 10 16 N/A
4:35 pm 16:35 Cloudy 70 21 59 15 69 69 NNW 8 13 30.12 1020 10 16 N/A
4:55 pm 16:55 Cloudy 70 21 59 15 69 69 NNW 7 11 30.12 1020 10 16 N/A
5:15 pm 17:15 Partly Cloudy 70 21 59 15 69 69 NNW 7 11 30.12 1020 10 16 N/A
5:35 pm 17:35 Sunny 68 20 59 15 73 73 NNW 9 15 30.15 1021 10 16 N/A
5:55 pm 17:55 Mostly Cloudy 68 20 57 14 69 69 NNW 10 17 30.15 1021 10 16 N/A
6:15 pm 18:15 Partly Cloudy 66 19 57 14 73 73 NNW 12 19 30.15 1021 10 16 N/A
6:35 pm 18:35 Partly Cloudy 64 18 55 13 73 73 NNW 10 17 30.15 1021 10 16 N/A
6:55 pm 18:55 Mostly Cloudy 64 18 55 13 73 73 NNW 15 24 30.18 1022 10 16 N/A
7:15 pm 19:15 Mostly Cloudy 63 17 54 12 73 73 NNW 14 22 30.18 1022 10 16 N/A
7:35 pm 19:35 Partly Cloudy 63 17 54 12 73 73 NNW 15 24 30.18 1022 10 16 N/A
7:55 pm 19:55 Clear 61 16 52 11 72 72 NNW 9 15 30.21 1023 10 16 N/A
8:15 pm 20:15 Clear 61 16 52 11 72 72 N 6 9 30.21 1023 10 16 N/A
8:35 pm 20:35 Clear 61 16 52 11 72 72 N 7 11 30.24 1024 10 16 N/A
8:55 pm 20:55 Clear 59 15 52 11 77 77 NW 16 26 30.21 1023 10 16 N/A
9:15 pm 21:15 Clear 59 15 50 10 72 72 NNW 9 15 30.24 1024 10 16 N/A
9:35 pm 21:35 Clear 55 13 50 10 82 82 NW 5 7 30.24 1024 10 16 N/A
9:55 pm 21:55 Clear 55 13 50 10 82 82 NNW 7 11 30.27 1025 10 16 N/A
10:15 pm 22:15 Clear 55 13 48 9 77 77 NNW 5 7 30.27 1025 10 16 N/A
10:35 pm 22:35 Clear 55 13 46 8 72 72 N 5 7 30.27 1025 10 16 N/A
10:55 pm 22:55 Clear 55 13 45 7 67 67 N 6 9 30.27 1025 10 16 N/A
11:15 pm 23:15 Clear 54 12 45 7 72 72 NNW 7 11 30.30 1026 10 16 N/A
11:35 pm 23:35 Clear 54 12 43 6 67 67 NNW 7 11 30.33 1027 10 16 N/A
11:55 pm 23:55 Clear 54 12 43 6 67 67 NNW 8 13 30.33 1027 10 16 N/A

Powered by AerisWeather